Location: Orange Harbor Mobile Home Park
(26.6923°N, 81.7937°W)
Time: 08:42:01
(UTC+00:00)

Meteor 1-12 Rocket - Pass Details

Date: 19 September 2020
Orbit: 854 x 927 km, 81.2° (Epoch: 29 October)

Event Time Altitude Azimuth Distance (km) Brightness Sun altitude
Rises 00:52:16 0° 190° (S) 3,551 7.4 -19.6°
Reaches altitude 10° 00:54:45 10° 192° (SSW) 2,606 6.7 -20.2°
Maximum altitude 01:00:42 75° 277° (W) 944 4.5 -21.5°
Drops below altitude 10° 01:06:35 10° 3° (N) 2,576 6.8 -22.7°
Sets 01:09:02 0° 5° (N) 3,508 7.5 -23.3°
